Year,Month,Day,Hour,Minute,Value (Times are PST for temperature in C)
2017,08,21,00,00,13.70
2017,08,21,00,01,13.70
2017,08,21,00,02,13.70
2017,08,21,00,03,13.70
2017,08,21,00,04,13.70
2017,08,21,00,05,13.70
2017,08,21,00,06,13.70
2017,08,21,00,07,13.70
2017,08,21,00,08,13.70
2017,08,21,00,09,13.70
2017,08,21,00,10,13.70
2017,08,21,00,11,13.60
2017,08,21,00,12,13.60
2017,08,21,00,13,13.60
2017,08,21,00,14,13.60
2017,08,21,00,15,13.60
2017,08,21,00,16,13.60
2017,08,21,00,17,13.60
2017,08,21,00,18,13.60
2017,08,21,00,19,13.60
2017,08,21,00,20,13.60
2017,08,21,00,21,13.60
2017,08,21,00,22,13.60
2017,08,21,00,23,13.60
2017,08,21,00,24,13.50
2017,08,21,00,25,13.50
2017,08,21,00,26,13.50
2017,08,21,00,27,13.50
2017,08,21,00,28,13.50
2017,08,21,00,29,13.50
2017,08,21,00,30,13.50
2017,08,21,00,31,13.50
2017,08,21,00,32,13.50
2017,08,21,00,33,13.40
2017,08,21,00,34,13.40
2017,08,21,00,35,13.40
2017,08,21,00,36,13.40
2017,08,21,00,37,13.40
2017,08,21,00,38,13.40
2017,08,21,00,39,13.40
2017,08,21,00,40,13.40
2017,08,21,00,41,13.40
2017,08,21,00,42,13.30
2017,08,21,00,43,13.30
2017,08,21,00,44,13.30
2017,08,21,00,45,13.30
2017,08,21,00,46,13.30
2017,08,21,00,47,13.30
2017,08,21,00,48,13.30
2017,08,21,00,49,13.30
2017,08,21,00,50,13.30
2017,08,21,00,51,13.30
2017,08,21,00,52,13.30
2017,08,21,00,53,13.30
2017,08,21,00,54,13.30
2017,08,21,00,55,13.30
2017,08,21,00,56,13.30
2017,08,21,00,57,13.30
2017,08,21,00,58,13.30
2017,08,21,00,59,13.30
2017,08,21,01,00,13.30
2017,08,21,01,01,13.30
2017,08,21,01,02,13.30
2017,08,21,01,03,13.30
2017,08,21,01,04,13.30
2017,08,21,01,05,13.30
2017,08,21,01,06,13.30
2017,08,21,01,07,13.30
2017,08,21,01,08,13.30
2017,08,21,01,09,13.30
2017,08,21,01,10,13.30
2017,08,21,01,11,13.20
2017,08,21,01,12,13.20
2017,08,21,01,13,13.20
2017,08,21,01,14,13.20
2017,08,21,01,15,13.20
2017,08,21,01,16,13.20
2017,08,21,01,17,13.20
2017,08,21,01,18,13.20
2017,08,21,01,19,13.20
2017,08,21,01,20,13.20
2017,08,21,01,21,13.10
2017,08,21,01,22,13.10
2017,08,21,01,23,13.10
2017,08,21,01,24,13.10
2017,08,21,01,25,13.10
2017,08,21,01,26,13.10
2017,08,21,01,27,13.10
2017,08,21,01,28,13.10
2017,08,21,01,29,13.10
2017,08,21,01,30,13.10
2017,08,21,01,31,13.10
2017,08,21,01,32,13.10
2017,08,21,01,33,13.00
2017,08,21,01,34,13.00
2017,08,21,01,35,13.00
2017,08,21,01,36,13.00
2017,08,21,01,37,13.00
2017,08,21,01,38,13.00
2017,08,21,01,39,13.00
2017,08,21,01,40,13.00
2017,08,21,01,41,13.00
2017,08,21,01,42,13.00
2017,08,21,01,43,13.00
2017,08,21,01,44,13.00
2017,08,21,01,45,13.00
2017,08,21,01,46,13.00
2017,08,21,01,47,13.00
2017,08,21,01,48,13.00
2017,08,21,01,49,13.00
2017,08,21,01,50,13.00
2017,08,21,01,51,13.00
2017,08,21,01,52,12.90
2017,08,21,01,53,12.90
2017,08,21,01,54,12.90
2017,08,21,01,55,12.90
2017,08,21,01,56,12.90
2017,08,21,01,57,12.90
2017,08,21,01,58,12.90
2017,08,21,01,59,12.90
2017,08,21,02,00,12.90
2017,08,21,02,01,12.90
2017,08,21,02,02,12.90
2017,08,21,02,03,12.90
2017,08,21,02,04,12.90
2017,08,21,02,05,12.90
2017,08,21,02,06,12.90
2017,08,21,02,07,12.80
2017,08,21,02,08,12.80
2017,08,21,02,09,12.80
2017,08,21,02,10,12.80
2017,08,21,02,11,12.80
2017,08,21,02,12,12.80
2017,08,21,02,13,12.80
2017,08,21,02,14,12.80
2017,08,21,02,15,12.80
2017,08,21,02,16,12.80
2017,08,21,02,17,12.80
2017,08,21,02,18,12.80
2017,08,21,02,19,12.80
2017,08,21,02,20,12.80
2017,08,21,02,21,12.80
2017,08,21,02,22,12.80
2017,08,21,02,23,12.80
2017,08,21,02,24,12.80
2017,08,21,02,25,12.80
2017,08,21,02,26,12.80
2017,08,21,02,27,12.80
2017,08,21,02,28,12.80
2017,08,21,02,29,12.80
2017,08,21,02,30,12.80
2017,08,21,02,31,12.80
2017,08,21,02,32,12.80
2017,08,21,02,33,12.80
2017,08,21,02,34,12.70
2017,08,21,02,35,12.70
2017,08,21,02,36,12.70
2017,08,21,02,37,12.70
2017,08,21,02,38,12.70
2017,08,21,02,39,12.70
2017,08,21,02,40,12.70
2017,08,21,02,41,12.70
2017,08,21,02,42,12.70
2017,08,21,02,43,12.70
2017,08,21,02,44,12.70
2017,08,21,02,45,12.70
2017,08,21,02,46,12.70
2017,08,21,02,47,12.70
2017,08,21,02,48,12.70
2017,08,21,02,49,12.70
2017,08,21,02,50,12.70
2017,08,21,02,51,12.70
2017,08,21,02,52,12.70
2017,08,21,02,53,12.60
2017,08,21,02,54,12.70
2017,08,21,02,55,12.60
2017,08,21,02,56,12.60
2017,08,21,02,57,12.60
2017,08,21,02,58,12.60
2017,08,21,02,59,12.60
2017,08,21,03,00,12.60
2017,08,21,03,01,12.60
2017,08,21,03,02,12.60
2017,08,21,03,03,12.60
2017,08,21,03,04,12.60
2017,08,21,03,05,12.60
2017,08,21,03,06,12.60
2017,08,21,03,07,12.50
2017,08,21,03,08,12.50
2017,08,21,03,09,12.50
2017,08,21,03,10,12.50
2017,08,21,03,11,12.50
2017,08,21,03,12,12.50
2017,08,21,03,13,12.50
2017,08,21,03,14,12.50
2017,08,21,03,15,12.40
2017,08,21,03,16,12.40
2017,08,21,03,17,12.40
2017,08,21,03,18,12.40
2017,08,21,03,19,12.40
2017,08,21,03,20,12.40
2017,08,21,03,21,12.40
2017,08,21,03,22,12.40
2017,08,21,03,23,12.40
2017,08,21,03,24,12.40
2017,08,21,03,25,12.40
2017,08,21,03,26,12.40
2017,08,21,03,27,12.40
2017,08,21,03,28,12.40
2017,08,21,03,29,12.40
2017,08,21,03,30,12.40
2017,08,21,03,31,12.40
2017,08,21,03,32,12.40
2017,08,21,03,33,12.40
2017,08,21,03,34,12.40
2017,08,21,03,35,12.40
2017,08,21,03,36,12.40
2017,08,21,03,37,12.40
2017,08,21,03,38,12.40
2017,08,21,03,39,12.40
2017,08,21,03,40,12.40
2017,08,21,03,41,12.40
2017,08,21,03,42,12.30
2017,08,21,03,43,12.30
2017,08,21,03,44,12.30
2017,08,21,03,45,12.30
2017,08,21,03,46,12.30
2017,08,21,03,47,12.30
2017,08,21,03,48,12.30
2017,08,21,03,49,12.30
2017,08,21,03,50,12.30
2017,08,21,03,51,12.30
2017,08,21,03,52,12.30
2017,08,21,03,53,12.30
2017,08,21,03,54,12.30
2017,08,21,03,55,12.30
2017,08,21,03,56,12.30
2017,08,21,03,57,12.30
2017,08,21,03,58,12.30
2017,08,21,03,59,12.30
2017,08,21,04,00,12.30
2017,08,21,04,01,12.30
2017,08,21,04,02,12.30
2017,08,21,04,03,12.30
2017,08,21,04,04,12.30
2017,08,21,04,05,12.30
2017,08,21,04,06,12.30
2017,08,21,04,07,12.30
2017,08,21,04,08,12.20
2017,08,21,04,09,12.20
2017,08,21,04,10,12.20
2017,08,21,04,11,12.20
2017,08,21,04,12,12.20
2017,08,21,04,13,12.20
2017,08,21,04,14,12.20
2017,08,21,04,15,12.20
2017,08,21,04,16,12.20
2017,08,21,04,17,12.20
2017,08,21,04,18,12.20
2017,08,21,04,19,12.20
2017,08,21,04,20,12.20
2017,08,21,04,21,12.20
2017,08,21,04,22,12.20
2017,08,21,04,23,12.20
2017,08,21,04,24,12.20
2017,08,21,04,25,12.20
2017,08,21,04,26,12.20
2017,08,21,04,27,12.20
2017,08,21,04,28,12.20
2017,08,21,04,29,12.20
2017,08,21,04,30,12.10
2017,08,21,04,31,12.10
2017,08,21,04,32,12.10
2017,08,21,04,33,12.10
2017,08,21,04,34,12.10
2017,08,21,04,35,12.10
2017,08,21,04,36,12.10
2017,08,21,04,37,12.10
2017,08,21,04,38,12.10
2017,08,21,04,39,12.10
2017,08,21,04,40,12.10
2017,08,21,04,41,12.10
2017,08,21,04,42,12.10
2017,08,21,04,43,12.10
2017,08,21,04,44,12.10
2017,08,21,04,45,12.10
2017,08,21,04,46,12.10
2017,08,21,04,47,12.00
2017,08,21,04,48,12.00
2017,08,21,04,49,12.00
2017,08,21,04,50,12.00
2017,08,21,04,51,12.00
2017,08,21,04,52,12.00
2017,08,21,04,53,12.00
2017,08,21,04,54,12.00
2017,08,21,04,55,12.00
2017,08,21,04,56,12.00
2017,08,21,04,57,12.00
2017,08,21,04,58,12.00
2017,08,21,04,59,12.00
2017,08,21,05,00,12.00
2017,08,21,05,01,12.10
2017,08,21,05,02,12.10
2017,08,21,05,03,12.00
2017,08,21,05,04,12.00
2017,08,21,05,05,12.00
2017,08,21,05,06,12.10
2017,08,21,05,07,12.10
2017,08,21,05,08,12.10
2017,08,21,05,09,12.10
2017,08,21,05,10,12.10
2017,08,21,05,11,12.10
2017,08,21,05,12,12.10
2017,08,21,05,13,12.10
2017,08,21,05,14,12.10
2017,08,21,05,15,12.10
2017,08,21,05,16,12.10
2017,08,21,05,17,12.10
2017,08,21,05,18,12.10
2017,08,21,05,19,12.10
2017,08,21,05,20,12.10
2017,08,21,05,21,12.10
2017,08,21,05,22,12.10
2017,08,21,05,23,12.10
2017,08,21,05,24,12.10
2017,08,21,05,25,12.10
2017,08,21,05,26,12.10
2017,08,21,05,27,12.00
2017,08,21,05,28,12.00
2017,08,21,05,29,12.00
2017,08,21,05,30,12.00
2017,08,21,05,31,12.00
2017,08,21,05,32,11.90
2017,08,21,05,33,11.90
2017,08,21,05,34,11.90
2017,08,21,05,35,11.90
2017,08,21,05,36,11.90
2017,08,21,05,37,11.90
2017,08,21,05,38,11.90
2017,08,21,05,39,11.90
2017,08,21,05,40,11.90
2017,08,21,05,41,11.90
2017,08,21,05,42,11.90
2017,08,21,05,43,11.80
2017,08,21,05,44,11.80
2017,08,21,05,45,11.80
2017,08,21,05,46,11.80
2017,08,21,05,47,11.90
2017,08,21,05,48,11.90
2017,08,21,05,49,11.90
2017,08,21,05,50,11.90
2017,08,21,05,51,11.90
2017,08,21,05,52,11.90
2017,08,21,05,53,11.90
2017,08,21,05,54,11.90
2017,08,21,05,55,11.90
2017,08,21,05,56,11.90
2017,08,21,05,57,11.90
2017,08,21,05,58,11.90
2017,08,21,05,59,11.90
2017,08,21,06,00,11.90
2017,08,21,06,01,11.90
2017,08,21,06,02,11.90
2017,08,21,06,03,11.90
2017,08,21,06,04,11.90
2017,08,21,06,05,11.80
2017,08,21,06,06,11.80
2017,08,21,06,07,11.80
2017,08,21,06,08,11.80
2017,08,21,06,09,11.80
2017,08,21,06,10,11.90
2017,08,21,06,11,11.90
2017,08,21,06,12,11.90
2017,08,21,06,13,11.90
2017,08,21,06,14,11.90
2017,08,21,06,15,11.90
2017,08,21,06,16,11.90
2017,08,21,06,17,11.90
2017,08,21,06,18,11.90
2017,08,21,06,19,11.90
2017,08,21,06,20,11.90
2017,08,21,06,21,11.90
2017,08,21,06,22,11.90
2017,08,21,06,23,11.90
2017,08,21,06,24,11.90
2017,08,21,06,25,11.90
2017,08,21,06,26,11.90
2017,08,21,06,27,12.00
2017,08,21,06,28,12.00
2017,08,21,06,29,12.00
2017,08,21,06,30,12.00
2017,08,21,06,31,12.00
2017,08,21,06,32,12.00
2017,08,21,06,33,12.00
2017,08,21,06,34,12.00
2017,08,21,06,35,12.00
2017,08,21,06,36,12.00
2017,08,21,06,37,11.90
2017,08,21,06,38,11.90
2017,08,21,06,39,11.90
2017,08,21,06,40,11.90
2017,08,21,06,41,11.90
2017,08,21,06,42,11.90
2017,08,21,06,43,11.80
2017,08,21,06,44,11.80
2017,08,21,06,45,11.80
2017,08,21,06,46,11.80
2017,08,21,06,47,11.80
2017,08,21,06,48,11.80
2017,08,21,06,49,11.80
2017,08,21,06,50,11.80
2017,08,21,06,51,11.80
2017,08,21,06,52,11.80
2017,08,21,06,53,11.80
2017,08,21,06,54,11.80
2017,08,21,06,55,11.80
2017,08,21,06,56,11.80
2017,08,21,06,57,11.80
2017,08,21,06,58,11.80
2017,08,21,06,59,11.80
2017,08,21,07,00,11.80
2017,08,21,07,01,11.80
2017,08,21,07,02,11.80
2017,08,21,07,03,11.80
2017,08,21,07,04,11.80
2017,08,21,07,05,11.80
2017,08,21,07,06,11.80
2017,08,21,07,07,11.90
2017,08,21,07,08,11.90
2017,08,21,07,09,11.90
2017,08,21,07,10,11.90
2017,08,21,07,11,11.90
2017,08,21,07,12,12.00
2017,08,21,07,13,12.00
2017,08,21,07,14,12.10
2017,08,21,07,15,12.10
2017,08,21,07,16,12.20
2017,08,21,07,17,12.30
2017,08,21,07,18,12.30
2017,08,21,07,19,12.40
2017,08,21,07,20,12.50
2017,08,21,07,21,12.50
2017,08,21,07,22,12.60
2017,08,21,07,23,12.60
2017,08,21,07,24,12.60
2017,08,21,07,25,12.70
2017,08,21,07,26,12.70
2017,08,21,07,27,12.70
2017,08,21,07,28,12.80
2017,08,21,07,29,12.80
2017,08,21,07,30,12.90
2017,08,21,07,31,13.00
2017,08,21,07,32,13.00
2017,08,21,07,33,13.10
2017,08,21,07,34,13.20
2017,08,21,07,35,13.20
2017,08,21,07,36,13.30
2017,08,21,07,37,13.30
2017,08,21,07,38,13.40
2017,08,21,07,39,13.40
2017,08,21,07,40,13.50
2017,08,21,07,41,13.60
2017,08,21,07,42,13.60
2017,08,21,07,43,13.70
2017,08,21,07,44,13.80
2017,08,21,07,45,13.80
2017,08,21,07,46,13.90
2017,08,21,07,47,14.00
2017,08,21,07,48,14.00
2017,08,21,07,49,14.10
2017,08,21,07,50,14.30
2017,08,21,07,51,14.30
2017,08,21,07,52,14.50
2017,08,21,07,53,14.60
2017,08,21,07,54,14.70
2017,08,21,07,55,14.80
2017,08,21,07,56,14.90
2017,08,21,07,57,15.00
2017,08,21,07,58,15.10
2017,08,21,07,59,15.20
2017,08,21,08,00,15.30
2017,08,21,08,01,15.30
2017,08,21,08,02,15.40
2017,08,21,08,03,15.50
2017,08,21,08,04,15.50
2017,08,21,08,05,15.60
2017,08,21,08,06,15.60
2017,08,21,08,07,15.70
2017,08,21,08,08,15.80
2017,08,21,08,09,15.80
2017,08,21,08,10,15.90
2017,08,21,08,11,15.90
2017,08,21,08,12,16.00
2017,08,21,08,13,16.10
2017,08,21,08,14,16.20
2017,08,21,08,15,16.30
2017,08,21,08,16,16.30
2017,08,21,08,17,16.30
2017,08,21,08,18,16.40
2017,08,21,08,19,16.40
2017,08,21,08,20,16.50
2017,08,21,08,21,16.60
2017,08,21,08,22,16.70
2017,08,21,08,23,16.70
2017,08,21,08,24,16.80
2017,08,21,08,25,16.80
2017,08,21,08,26,16.90
2017,08,21,08,27,17.00
2017,08,21,08,28,17.10
2017,08,21,08,29,17.10
2017,08,21,08,30,17.20
2017,08,21,08,31,17.30
2017,08,21,08,32,17.40
2017,08,21,08,33,17.40
2017,08,21,08,34,17.50
2017,08,21,08,35,17.60
2017,08,21,08,36,17.70
2017,08,21,08,37,17.70
2017,08,21,08,38,17.80
2017,08,21,08,39,17.90
2017,08,21,08,40,18.00
2017,08,21,08,41,18.10
2017,08,21,08,42,18.10
2017,08,21,08,43,18.20
2017,08,21,08,44,18.30
2017,08,21,08,45,18.40
2017,08,21,08,46,18.50
2017,08,21,08,47,18.50
2017,08,21,08,48,18.60
2017,08,21,08,49,18.70
2017,08,21,08,50,18.70
2017,08,21,08,51,18.80
2017,08,21,08,52,18.90
2017,08,21,08,53,19.00
2017,08,21,08,54,19.00
2017,08,21,08,55,19.10
2017,08,21,08,56,19.10
2017,08,21,08,57,19.10
2017,08,21,08,58,19.20
2017,08,21,08,59,19.20
2017,08,21,09,00,19.20
2017,08,21,09,01,19.20
2017,08,21,09,02,19.10
2017,08,21,09,03,19.10
2017,08,21,09,04,19.20
2017,08,21,09,05,19.30
2017,08,21,09,06,19.30
2017,08,21,09,07,19.30
2017,08,21,09,08,19.40
2017,08,21,09,09,19.40
2017,08,21,09,10,19.40
2017,08,21,09,11,19.40
2017,08,21,09,12,19.40
2017,08,21,09,13,19.50
2017,08,21,09,14,19.50
2017,08,21,09,15,19.50
2017,08,21,09,16,19.50
2017,08,21,09,17,19.60
2017,08,21,09,18,19.70
2017,08,21,09,19,19.80
2017,08,21,09,20,19.90
2017,08,21,09,21,20.00
2017,08,21,09,22,20.00
2017,08,21,09,23,20.00
2017,08,21,09,24,20.10
2017,08,21,09,25,20.10
2017,08,21,09,26,20.10
2017,08,21,09,27,20.20
2017,08,21,09,28,20.20
2017,08,21,09,29,20.30
2017,08,21,09,30,20.30
2017,08,21,09,31,20.30
2017,08,21,09,32,20.30
2017,08,21,09,33,20.30
2017,08,21,09,34,20.30
2017,08,21,09,35,20.30
2017,08,21,09,36,20.30
2017,08,21,09,37,20.30
2017,08,21,09,38,20.30
2017,08,21,09,39,20.40
2017,08,21,09,40,20.30
2017,08,21,09,41,20.30
2017,08,21,09,42,20.30
2017,08,21,09,43,20.30
2017,08,21,09,44,20.30
2017,08,21,09,45,20.30
2017,08,21,09,46,20.20
2017,08,21,09,47,20.20
2017,08,21,09,48,20.10
2017,08,21,09,49,20.00
2017,08,21,09,50,20.00
2017,08,21,09,51,19.90
2017,08,21,09,52,19.80
2017,08,21,09,53,19.80
2017,08,21,09,54,19.80
2017,08,21,09,55,19.80
2017,08,21,09,56,19.80
2017,08,21,09,57,19.80
2017,08,21,09,58,19.70
2017,08,21,09,59,19.70
2017,08,21,10,00,19.60
2017,08,21,10,01,19.60
2017,08,21,10,02,19.50
2017,08,21,10,03,19.50
2017,08,21,10,04,19.40
2017,08,21,10,05,19.30
2017,08,21,10,06,19.30
2017,08,21,10,07,19.20
2017,08,21,10,08,19.10
2017,08,21,10,09,19.10
2017,08,21,10,10,19.00
2017,08,21,10,11,19.00
2017,08,21,10,12,18.90
2017,08,21,10,13,18.90
2017,08,21,10,14,18.80
2017,08,21,10,15,18.80
2017,08,21,10,16,18.80
2017,08,21,10,17,18.80
2017,08,21,10,18,18.70
2017,08,21,10,19,18.70
2017,08,21,10,20,18.70
2017,08,21,10,21,18.70
2017,08,21,10,22,18.70
2017,08,21,10,23,18.70
2017,08,21,10,24,18.70
2017,08,21,10,25,18.60
2017,08,21,10,26,18.60
2017,08,21,10,27,18.60
2017,08,21,10,28,18.60
2017,08,21,10,29,18.60
2017,08,21,10,30,18.50
2017,08,21,10,31,18.60
2017,08,21,10,32,18.60
2017,08,21,10,33,18.60
2017,08,21,10,34,18.60
2017,08,21,10,35,18.60
2017,08,21,10,36,18.60
2017,08,21,10,37,18.60
2017,08,21,10,38,18.60
2017,08,21,10,39,18.60
2017,08,21,10,40,18.50
2017,08,21,10,41,18.50
2017,08,21,10,42,18.50
2017,08,21,10,43,18.50
2017,08,21,10,44,18.50
2017,08,21,10,45,18.60
2017,08,21,10,46,18.60
2017,08,21,10,47,18.60
2017,08,21,10,48,18.60
2017,08,21,10,49,18.60
2017,08,21,10,50,18.70
2017,08,21,10,51,18.70
2017,08,21,10,52,18.70
2017,08,21,10,53,18.70
2017,08,21,10,54,18.70
2017,08,21,10,55,18.80
2017,08,21,10,56,18.80
2017,08,21,10,57,18.80
2017,08,21,10,58,18.80
2017,08,21,10,59,18.80
2017,08,21,11,00,18.90
2017,08,21,11,01,18.90
2017,08,21,11,02,18.90
2017,08,21,11,03,19.00
2017,08,21,11,04,19.00
2017,08,21,11,05,19.10
2017,08,21,11,06,19.20
2017,08,21,11,07,19.20
2017,08,21,11,08,19.30
2017,08,21,11,09,19.30
2017,08,21,11,10,19.40
2017,08,21,11,11,19.50
2017,08,21,11,12,19.60
2017,08,21,11,13,19.70
2017,08,21,11,14,19.80
2017,08,21,11,15,19.80
2017,08,21,11,16,19.90
2017,08,21,11,17,19.90
2017,08,21,11,18,19.90
2017,08,21,11,19,19.90
2017,08,21,11,20,19.90
2017,08,21,11,21,19.90
2017,08,21,11,22,20.00
2017,08,21,11,23,20.00
2017,08,21,11,24,20.10
2017,08,21,11,25,20.10
2017,08,21,11,26,20.20
2017,08,21,11,27,20.20
2017,08,21,11,28,20.30
2017,08,21,11,29,20.30
2017,08,21,11,30,20.40
2017,08,21,11,31,20.40
2017,08,21,11,32,20.40
2017,08,21,11,33,20.50
2017,08,21,11,34,20.50
2017,08,21,11,35,20.60
2017,08,21,11,36,20.60
2017,08,21,11,37,20.60
2017,08,21,11,38,20.60
2017,08,21,11,39,20.70
2017,08,21,11,40,20.70
2017,08,21,11,41,20.80
2017,08,21,11,42,20.80
2017,08,21,11,43,20.80
2017,08,21,11,44,20.90
2017,08,21,11,45,20.90
2017,08,21,11,46,21.00
2017,08,21,11,47,21.10
2017,08,21,11,48,21.30
2017,08,21,11,49,21.30
2017,08,21,11,50,21.30
2017,08,21,11,51,21.30
2017,08,21,11,52,21.30
2017,08,21,11,53,21.30
2017,08,21,11,54,21.30
2017,08,21,11,55,21.30
2017,08,21,11,56,21.40
2017,08,21,11,57,21.40
2017,08,21,11,58,21.50
2017,08,21,11,59,21.60
2017,08,21,12,00,21.70
2017,08,21,12,01,21.70
2017,08,21,12,02,21.80
2017,08,21,12,03,21.80
2017,08,21,12,04,21.80
2017,08,21,12,05,21.90
2017,08,21,12,06,21.90
2017,08,21,12,07,21.90
2017,08,21,12,08,21.80
2017,08,21,12,09,21.70
2017,08,21,12,10,21.60
2017,08,21,12,11,21.60
2017,08,21,12,12,21.60
2017,08,21,12,13,21.50
2017,08,21,12,14,21.50
2017,08,21,12,15,21.40
2017,08,21,12,16,21.40
2017,08,21,12,17,21.50
2017,08,21,12,18,21.60
2017,08,21,12,19,21.70
2017,08,21,12,20,21.80
2017,08,21,12,21,21.90
2017,08,21,12,22,22.00
2017,08,21,12,23,22.10
2017,08,21,12,24,22.20
2017,08,21,12,25,22.20
2017,08,21,12,26,22.20
2017,08,21,12,27,22.20
2017,08,21,12,28,22.10
2017,08,21,12,29,22.00
2017,08,21,12,30,21.90
2017,08,21,12,31,21.90
2017,08,21,12,32,21.80
2017,08,21,12,33,21.80
2017,08,21,12,34,21.90
2017,08,21,12,35,21.90
2017,08,21,12,36,21.90
2017,08,21,12,37,21.90
2017,08,21,12,38,21.80
2017,08,21,12,39,21.90
2017,08,21,12,40,21.90
2017,08,21,12,41,21.90
2017,08,21,12,42,22.00
2017,08,21,12,43,22.00
2017,08,21,12,44,22.20
2017,08,21,12,45,22.30
2017,08,21,12,46,22.40
2017,08,21,12,47,22.50
2017,08,21,12,48,22.60
2017,08,21,12,49,22.70
2017,08,21,12,50,22.70
2017,08,21,12,51,22.70
2017,08,21,12,52,22.80
2017,08,21,12,53,22.70
2017,08,21,12,54,22.70
2017,08,21,12,55,22.70
2017,08,21,12,56,22.80
2017,08,21,12,57,22.80
2017,08,21,12,58,22.80
2017,08,21,12,59,22.90
2017,08,21,13,00,22.90
2017,08,21,13,01,22.90
2017,08,21,13,02,22.90
2017,08,21,13,03,22.80
2017,08,21,13,04,22.80
2017,08,21,13,05,22.80
2017,08,21,13,06,22.80
2017,08,21,13,07,22.90
2017,08,21,13,08,22.90
2017,08,21,13,09,22.90
2017,08,21,13,10,22.90
2017,08,21,13,11,22.90
2017,08,21,13,12,22.80
2017,08,21,13,13,22.80
2017,08,21,13,14,22.70
2017,08,21,13,15,22.70
2017,08,21,13,16,22.70
2017,08,21,13,17,22.70
2017,08,21,13,18,22.70
2017,08,21,13,19,22.70
2017,08,21,13,20,22.80
2017,08,21,13,21,22.90
2017,08,21,13,22,23.00
2017,08,21,13,23,23.00
2017,08,21,13,24,23.10
2017,08,21,13,25,23.10
2017,08,21,13,26,23.10
2017,08,21,13,27,23.00
2017,08,21,13,28,23.00
2017,08,21,13,29,22.90
2017,08,21,13,30,22.90
2017,08,21,13,31,22.90
2017,08,21,13,32,22.90
2017,08,21,13,33,22.70
2017,08,21,13,34,22.60
2017,08,21,13,35,22.60
2017,08,21,13,36,22.50
2017,08,21,13,37,22.40
2017,08,21,13,38,22.40
2017,08,21,13,39,22.40
2017,08,21,13,40,22.50
2017,08,21,13,41,22.50
2017,08,21,13,42,22.50
2017,08,21,13,43,22.60
2017,08,21,13,44,22.60
2017,08,21,13,45,22.70
2017,08,21,13,46,22.80
2017,08,21,13,47,22.80
2017,08,21,13,48,22.80
2017,08,21,13,49,22.80
2017,08,21,13,50,22.80
2017,08,21,13,51,22.80
2017,08,21,13,52,22.70
2017,08,21,13,53,22.70
2017,08,21,13,54,22.70
2017,08,21,13,55,22.70
2017,08,21,13,56,22.70
2017,08,21,13,57,22.70
2017,08,21,13,58,22.70
2017,08,21,13,59,22.80
2017,08,21,14,00,22.80
2017,08,21,14,01,22.90
2017,08,21,14,02,22.90
2017,08,21,14,03,22.90
2017,08,21,14,04,22.90
2017,08,21,14,05,22.80
2017,08,21,14,06,22.80
2017,08,21,14,07,22.90
2017,08,21,14,08,22.90
2017,08,21,14,09,22.90
2017,08,21,14,10,22.90
2017,08,21,14,11,23.00
2017,08,21,14,12,23.00
2017,08,21,14,13,23.10
2017,08,21,14,14,23.10
2017,08,21,14,15,23.10
2017,08,21,14,16,23.20
2017,08,21,14,17,23.20
2017,08,21,14,18,23.20
2017,08,21,14,19,23.30
2017,08,21,14,20,23.30
2017,08,21,14,21,23.30
2017,08,21,14,22,23.30
2017,08,21,14,23,23.30
2017,08,21,14,24,23.30
2017,08,21,14,25,23.30
2017,08,21,14,26,23.30
2017,08,21,14,27,23.30
2017,08,21,14,28,23.30
2017,08,21,14,29,23.40
2017,08,21,14,30,23.40
2017,08,21,14,31,23.40
2017,08,21,14,32,23.50
2017,08,21,14,33,23.60
2017,08,21,14,34,23.60
2017,08,21,14,35,23.60
2017,08,21,14,36,23.60
2017,08,21,14,37,23.60
2017,08,21,14,38,23.60
2017,08,21,14,39,23.70
2017,08,21,14,40,23.70
2017,08,21,14,41,23.70
2017,08,21,14,42,23.70
2017,08,21,14,43,23.70
2017,08,21,14,44,23.70
2017,08,21,14,45,23.70
2017,08,21,14,46,23.70
2017,08,21,14,47,23.60
2017,08,21,14,48,23.50
2017,08,21,14,49,23.50
2017,08,21,14,50,23.50
2017,08,21,14,51,23.50
2017,08,21,14,52,23.60
2017,08,21,14,53,23.60
2017,08,21,14,54,23.60
2017,08,21,14,55,23.50
2017,08,21,14,56,23.50
2017,08,21,14,57,23.50
2017,08,21,14,58,23.50
2017,08,21,14,59,23.60
2017,08,21,15,00,23.60
2017,08,21,15,01,23.60
2017,08,21,15,02,23.60
2017,08,21,15,03,23.60
2017,08,21,15,04,23.70
2017,08,21,15,05,23.70
2017,08,21,15,06,23.70
2017,08,21,15,07,23.80
2017,08,21,15,08,23.90
2017,08,21,15,09,23.90
2017,08,21,15,10,24.00
2017,08,21,15,11,24.00
2017,08,21,15,12,24.00
2017,08,21,15,13,24.00
2017,08,21,15,14,24.00
2017,08,21,15,15,24.00
2017,08,21,15,16,23.90
2017,08,21,15,17,23.90
2017,08,21,15,18,24.00
2017,08,21,15,19,24.10
2017,08,21,15,20,24.10
2017,08,21,15,21,24.20
2017,08,21,15,22,24.20
2017,08,21,15,23,24.20
2017,08,21,15,24,24.20
2017,08,21,15,25,24.20
2017,08,21,15,26,24.10
2017,08,21,15,27,24.10
2017,08,21,15,28,24.20
2017,08,21,15,29,24.20
2017,08,21,15,30,24.20
2017,08,21,15,31,24.30
2017,08,21,15,32,24.30
2017,08,21,15,33,24.20
2017,08,21,15,34,24.10
2017,08,21,15,35,24.00
2017,08,21,15,36,24.00
2017,08,21,15,37,24.00
2017,08,21,15,38,23.90
2017,08,21,15,39,23.90
2017,08,21,15,40,23.90
2017,08,21,15,41,23.90
2017,08,21,15,42,24.00
2017,08,21,15,43,24.00
2017,08,21,15,44,24.00
2017,08,21,15,45,24.00
2017,08,21,15,46,23.90
2017,08,21,15,47,24.00
2017,08,21,15,48,24.00
2017,08,21,15,49,24.10
2017,08,21,15,50,24.10
2017,08,21,15,51,24.10
2017,08,21,15,52,24.20
2017,08,21,15,53,24.20
2017,08,21,15,54,24.10
2017,08,21,15,55,24.10
2017,08,21,15,56,24.00
2017,08,21,15,57,24.00
2017,08,21,15,58,23.90
2017,08,21,15,59,23.90
2017,08,21,16,00,23.90
2017,08,21,16,01,23.90
2017,08,21,16,02,23.90
2017,08,21,16,03,23.90
2017,08,21,16,04,23.90
2017,08,21,16,05,24.00
2017,08,21,16,06,24.00
2017,08,21,16,07,24.10
2017,08,21,16,08,24.10
2017,08,21,16,09,24.10
2017,08,21,16,10,24.10
2017,08,21,16,11,24.20
2017,08,21,16,12,24.20
2017,08,21,16,13,24.20
2017,08,21,16,14,24.30
2017,08,21,16,15,24.30
2017,08,21,16,16,24.30
2017,08,21,16,17,24.30
2017,08,21,16,18,24.30
2017,08,21,16,19,24.30
2017,08,21,16,20,24.30
2017,08,21,16,21,24.30
2017,08,21,16,22,24.40
2017,08,21,16,23,24.40
2017,08,21,16,24,24.40
2017,08,21,16,25,24.40
2017,08,21,16,26,24.40
2017,08,21,16,27,24.40
2017,08,21,16,28,24.50
2017,08,21,16,29,24.50
2017,08,21,16,30,24.40
2017,08,21,16,31,24.40
2017,08,21,16,32,24.40
2017,08,21,16,33,24.40
2017,08,21,16,34,24.40
2017,08,21,16,35,24.40
2017,08,21,16,36,24.40
2017,08,21,16,37,24.40
2017,08,21,16,38,24.40
2017,08,21,16,39,24.40
2017,08,21,16,40,24.50
2017,08,21,16,41,24.50
2017,08,21,16,42,24.60
2017,08,21,16,43,24.60
2017,08,21,16,44,24.60
2017,08,21,16,45,24.60
2017,08,21,16,46,24.60
2017,08,21,16,47,24.60
2017,08,21,16,48,24.60
2017,08,21,16,49,24.60
2017,08,21,16,50,24.60
2017,08,21,16,51,24.60
2017,08,21,16,52,24.60
2017,08,21,16,53,24.60
2017,08,21,16,54,24.60
2017,08,21,16,55,24.60
2017,08,21,16,56,24.70
2017,08,21,16,57,24.70
2017,08,21,16,58,24.80
2017,08,21,16,59,24.80
2017,08,21,17,00,24.80
2017,08,21,17,01,24.80
2017,08,21,17,02,24.80
2017,08,21,17,03,24.80
2017,08,21,17,04,24.70
2017,08,21,17,05,24.70
2017,08,21,17,06,24.70
2017,08,21,17,07,24.70
2017,08,21,17,08,24.70
2017,08,21,17,09,24.70
2017,08,21,17,10,24.70
2017,08,21,17,11,24.70
2017,08,21,17,12,24.70
2017,08,21,17,13,24.70
2017,08,21,17,14,24.70
2017,08,21,17,15,24.70
2017,08,21,17,16,24.70
2017,08,21,17,17,24.70
2017,08,21,17,18,24.70
2017,08,21,17,19,24.70